When you browse on this site, cookies collect data to enhance your experience and personalize the content and advertising you see.
Visit our Privacy Policy to learn more. By continuing to use the site, you agree to this use of cookies and data.
  • In Portugal
  • List of Countries
  • For 7 days
  • Water Temperature
  • Satellite Maps
  • Weather Map
  • Weather Widgets
  • user-avatar
    Login

    Hourly Weather Maloe Ermakovo

    Today, 24 May, Friday

    Time Temperature Precipitation Wind Pressure Humidity
    00:00 +14°C° 0.4 mm 2 mps 742 mmHg 93%
    01:00 +14°C° 0.6 mm 2 mps 742 mmHg 95%
    02:00 +14°C° 0.6 mm 2 mps 743 mmHg 96%
    03:00 +14°C° 0 mm 1 mps 742 mmHg 97%
    04:00 +12°C° 0.3 mm 3 mps 743 mmHg 95%
    05:00 +11°C° 0.3 mm 4 mps 743 mmHg 93%
    06:00 +10°C° 0.3 mm 6 mps 744 mmHg 91%
    07:00 +9°C° 0 mm 6 mps 744 mmHg 89%
    08:00 +8°C° 0 mm 6 mps 745 mmHg 86%
    09:00 +8°C° 0 mm 6 mps 746 mmHg 84%
    10:00 +9°C° 0 mm 6 mps 746 mmHg 76%
    11:00 +10°C° 0 mm 6 mps 747 mmHg 69%
    12:00 +11°C° 0 mm 6 mps 748 mmHg 61%
    13:00 +11°C° 0 mm 6 mps 748 mmHg 59%
    14:00 +11°C° 0 mm 6 mps 748 mmHg 56%
    15:00 +11°C° 0 mm 6 mps 749 mmHg 53%
    16:00 +12°C° 0 mm 5 mps 749 mmHg 56%
    17:00 +10°C° 0 mm 5 mps 750 mmHg 58%
    18:00 +10°C° 0 mm 4 mps 751 mmHg 61%
    19:00 +8°C° 0 mm 4 mps 751 mmHg 64%
    20:00 +8°C° 0 mm 3 mps 752 mmHg 67%
    21:00 +6°C° 0 mm 2 mps 752 mmHg 71%
    22:00 +6°C° 0 mm 2 mps 753 mmHg 71%
    23:00 +5°C° 0 mm 2 mps 753 mmHg 71%

    Tomorrow, 25 May, Saturday

    Time Temperature Precipitation Wind Pressure Humidity
    00:00 +5°C° 0 mm 2 mps 754 mmHg 70%
    01:00 +4°C° 0 mm 2 mps 754 mmHg 70%
    02:00 +5°C° 0 mm 1 mps 755 mmHg 70%
    03:00 +4°C° 0 mm 1 mps 755 mmHg 70%
    04:00 +5°C° 0 mm 1 mps 756 mmHg 67%
    05:00 +7°C° 0 mm 1 mps 756 mmHg 63%
    06:00 +8°C° 0 mm 1 mps 757 mmHg 60%
    07:00 +9°C° 0 mm 1 mps 757 mmHg 55%
    08:00 +10°C° 0 mm 1 mps 757 mmHg 49%
    09:00 +12°C° 0 mm 1 mps 757 mmHg 44%
    10:00 +13°C° 0 mm 1 mps 757 mmHg 42%
    11:00 +13°C° 0 mm 1 mps 757 mmHg 41%
    12:00 +14°C° 0 mm 1 mps 757 mmHg 40%
    13:00 +15°C° 0 mm 2 mps 757 mmHg 40%
    14:00 +15°C° 0 mm 2 mps 756 mmHg 41%
    15:00 +15°C° 0 mm 2 mps 756 mmHg 41%
    16:00 +15°C° 0 mm 2 mps 756 mmHg 46%
    17:00 +15°C° 0 mm 2 mps 755 mmHg 52%
    18:00 +14°C° 0 mm 2 mps 755 mmHg 57%
    19:00 +13°C° 0 mm 2 mps 755 mmHg 60%
    20:00 +10°C° 0 mm 2 mps 755 mmHg 62%
    21:00 +9°C° 0 mm 2 mps 755 mmHg 65%
    22:00 +8°C° 0 mm 2 mps 755 mmHg 66%
    23:00 +8°C° 0 mm 3 mps 755 mmHg 67%

    Day after tomorrow, 26 May, Sunday

    Time Temperature Precipitation Wind Pressure Humidity
    00:00 +7°C° 0 mm 3 mps 755 mmHg 68%
    01:00 +7°C° 0 mm 3 mps 755 mmHg 69%
    02:00 +7°C° 0 mm 3 mps 755 mmHg 69%
    03:00 +7°C° 0 mm 3 mps 755 mmHg 69%
    04:00 +7°C° 0 mm 4 mps 755 mmHg 68%
    05:00 +8°C° 0 mm 5 mps 755 mmHg 66%
    06:00 +9°C° 0 mm 5 mps 754 mmHg 64%
    07:00 +10°C° 0 mm 6 mps 754 mmHg 61%
    08:00 +13°C° 0 mm 6 mps 754 mmHg 57%
    09:00 +15°C° 0 mm 6 mps 753 mmHg 54%
    10:00 +16°C° 0 mm 6 mps 753 mmHg 52%
    11:00 +19°C° 0 mm 6 mps 752 mmHg 50%
    12:00 +20°C° 0 mm 6 mps 752 mmHg 48%
    13:00 +21°C° 0 mm 6 mps 752 mmHg 48%
    14:00 +21°C° 0 mm 6 mps 751 mmHg 48%
    15:00 +22°C° 0 mm 6 mps 751 mmHg 47%
    16:00 +21°C° 0 mm 5 mps 751 mmHg 53%
    17:00 +20°C° 0 mm 4 mps 750 mmHg 58%
    18:00 +20°C° 0 mm 3 mps 750 mmHg 64%
    19:00 +19°C° 0 mm 3 mps 750 mmHg 67%
    20:00 +18°C° 0 mm 3 mps 749 mmHg 70%
    21:00 +17°C° 0 mm 3 mps 749 mmHg 74%
    22:00 +17°C° 0.1 mm 4 mps 749 mmHg 74%
    23:00 +17°C° 0.1 mm 4 mps 748 mmHg 75%

    27 May, Monday

    Time Temperature Precipitation Wind Pressure Humidity
    00:00 +16°C° 0.1 mm 5 mps 748 mmHg 76%
    01:00 +15°C° 0 mm 5 mps 748 mmHg 79%
    02:00 +15°C° 0 mm 5 mps 747 mmHg 82%
    03:00 +14°C° 0 mm 4 mps 747 mmHg 85%
    04:00 +14°C° 0.7 mm 5 mps 747 mmHg 86%
    05:00 +15°C° 0.7 mm 5 mps 747 mmHg 87%
    06:00 +15°C° 0.7 mm 5 mps 746 mmHg 89%
    07:00 +16°C° 0.6 mm 6 mps 746 mmHg 86%
    08:00 +17°C° 0.6 mm 6 mps 746 mmHg 84%
    09:00 +19°C° 0.6 mm 6 mps 746 mmHg 81%
    10:00 +19°C° 0.7 mm 6 mps 746 mmHg 81%
    11:00 +20°C° 0.7 mm 6 mps 746 mmHg 80%
    12:00 +20°C° 0.7 mm 6 mps 746 mmHg 80%
    13:00 +21°C° 0.2 mm 6 mps 746 mmHg 76%
    14:00 +22°C° 0.2 mm 6 mps 747 mmHg 72%
    15:00 +23°C° 0.2 mm 6 mps 747 mmHg 68%
    16:00 +22°C° 0.2 mm 5 mps 747 mmHg 73%
    17:00 +21°C° 0.2 mm 4 mps 747 mmHg 77%
    18:00 +21°C° 0.2 mm 3 mps 748 mmHg 82%
    19:00 +20°C° 0.1 mm 3 mps 748 mmHg 86%
    20:00 +18°C° 0.1 mm 3 mps 749 mmHg 90%
    21:00 +17°C° 0.1 mm 2 mps 750 mmHg 94%
    22:00 +16°C° 0 mm 2 mps 750 mmHg 94%
    23:00 +16°C° 0 mm 2 mps 750 mmHg 93%

    28 May, Tuesday

    Time Temperature Precipitation Wind Pressure Humidity
    00:00 +15°C° 0 mm 2 mps 751 mmHg 93%
    01:00 +14°C° 0 mm 2 mps 751 mmHg 93%
    02:00 +14°C° 0 mm 2 mps 752 mmHg 93%
    03:00 +13°C° 0 mm 2 mps 752 mmHg 93%
    04:00 +14°C° 0 mm 2 mps 752 mmHg 90%
    05:00 +15°C° 0 mm 2 mps 753 mmHg 87%
    06:00 +16°C° 0 mm 1 mps 753 mmHg 84%
    07:00 +19°C° 0 mm 1 mps 754 mmHg 76%
    08:00 +19°C° 0 mm 2 mps 754 mmHg 67%
    09:00 +21°C° 0 mm 2 mps 754 mmHg 59%
    10:00 +23°C° 0 mm 2 mps 754 mmHg 55%
    11:00 +23°C° 0 mm 2 mps 754 mmHg 51%
    12:00 +24°C° 0 mm 2 mps 754 mmHg 47%
    13:00 +24°C° 0 mm 2 mps 754 mmHg 47%
    14:00 +25°C° 0 mm 3 mps 754 mmHg 48%
    15:00 +25°C° 0 mm 3 mps 754 mmHg 48%
    16:00 +24°C° 0 mm 2 mps 754 mmHg 54%
    17:00 +24°C° 0 mm 2 mps 754 mmHg 59%
    18:00 +23°C° 0 mm 2 mps 754 mmHg 64%
    19:00 +21°C° 0 mm 1 mps 755 mmHg 68%
    20:00 +20°C° 0 mm 1 mps 755 mmHg 71%
    21:00 +18°C° 0 mm 1 mps 755 mmHg 74%
    22:00 +18°C° 0 mm 1 mps 755 mmHg 74%
    23:00 +16°C° 0 mm 1 mps 755 mmHg 75%

    29 May, Wednesday

    Time Temperature Precipitation Wind Pressure Humidity
    00:00 +16°C° 0 mm 2 mps 756 mmHg 75%
    01:00 +16°C° 0 mm 2 mps 756 mmHg 76%
    02:00 +15°C° 0 mm 2 mps 756 mmHg 77%
    03:00 +15°C° 0 mm 2 mps 756 mmHg 77%
    04:00 +16°C° 0 mm 2 mps 756 mmHg 77%
    05:00 +17°C° 0 mm 2 mps 756 mmHg 76%
    06:00 +18°C° 0 mm 2 mps 756 mmHg 75%
    07:00 +20°C° 0 mm 2 mps 756 mmHg 72%
    08:00 +22°C° 0 mm 3 mps 756 mmHg 69%
    09:00 +25°C° 0 mm 3 mps 756 mmHg 65%
    10:00 +26°C° 0 mm 3 mps 756 mmHg 63%
    11:00 +27°C° 0 mm 3 mps 756 mmHg 60%
    12:00 +28°C° 0 mm 4 mps 756 mmHg 57%
    13:00 +28°C° 0 mm 4 mps 756 mmHg 58%
    14:00 +28°C° 0 mm 4 mps 755 mmHg 58%
    15:00 +28°C° 0 mm 4 mps 755 mmHg 58%
    16:00 +28°C° 0 mm 3 mps 755 mmHg 63%
    17:00 +27°C° 0 mm 2 mps 755 mmHg 67%
    18:00 +27°C° 0 mm 2 mps 755 mmHg 72%
    19:00 +25°C° 0.1 mm 2 mps 755 mmHg 76%
    20:00 +24°C° 0.1 mm 2 mps 755 mmHg 81%
    21:00 +21°C° 0.1 mm 2 mps 755 mmHg 85%
    22:00 +21°C° 0 mm 1 mps 755 mmHg 87%
    23:00 +21°C° 0 mm 1 mps 756 mmHg 88%
    Show more